Location: Étavigny
(49.1201°N, 2.9800°E)
Time: 00:27:21
(UTC+00:00)

MINOTAUR 4 R/B - Pass Details

Date: 28 January 2023
Orbit: 447 x 451 km, 98.0° (Epoch: 01 April)

Event Time Altitude Azimuth Distance (km) Brightness Sun altitude
Exits shadow 17:33:23 12° 90° (E) 1,477 5.9 -9.2°
Drops below altitude 10° 17:34:40 10° 113° (ESE) 1,576 6.2 -9.4°
Enters shadow 18:48:19 -32° 12° (NNE) 7,671 10.1 -21.3°
